Regional Weather Roundup
Issued by NWS

Home | Current Version | Previous Version | Text Only | Print | Product List | Glossary On
Versions: 1 2 3 4 5 6 7 8 9 10 11 12 13 14 15 16 17 18 19 20 21 22 23 24 25 26 27 28 29 30 31 32 33 34 35 36 37 38 39 40 41 42 43 44 45 46 47 48 49 50
000
ASUS43 KLMK 210810
RWRKY
KENTUCKY REGIONAL WEATHER ROUNDUP
NATIONAL WEATHER SERVICE LOUISVILLE KY
400 AM EDT TUE APR 21 2015

NOTE "FAIR" INDICATES FEW OR NO CLOUDS BELOW 12,000 FEET
WITH NO SIGNIFICANT WEATHER AND/OR OBSTRUCTIONS TO VISIBILITY.

KYZ001>023-026-027-061>063-070>075-210900-
WESTERN AND SOUTH CENTRAL KENTUCKY

CITY           SKY/WX    TMP DP  RH WIND       PRES   REMARKS
PADUCAH        CLEAR     47  36  65 SW6       29.90S
HENDERSON      CLEAR     43  36  75 SW8       29.86F
OWENSBORO      CLEAR     44  37  76 SW7       29.88S
HOPKINSVILLE   CLEAR     46  40  82 SW3       29.91S
BOWLING GREEN  CLOUDY    50  40  68 SW6       29.90S
GLASGOW        CLOUDY    47  41  82 CALM      29.90S
$$

KYZ024-025-028>034-038-045-046-053-210900-
NORTH CENTRAL KENTUCKY

CITY           SKY/WX    TMP DP  RH WIND       PRES   REMARKS
LOUISVILLE/SDF PTCLDY    48  36  63 SW8       29.85S
LOUISVILLE/LOU CLEAR     45  35  68 S3        29.85S
FORT KNOX      CLEAR     41  36  80 S5        29.85R
$$

KYZ035>037-039>044-047>052-055>060-089>105-210900-
NORTHEAST KENTUCKY

CITY           SKY/WX    TMP DP  RH WIND       PRES   REMARKS
LEXINGTON      PTCLDY    43  35  73 SW7       29.85F
COVINGTON      PTCLDY    44  35  70 SW7       29.80S
FRANKFORT      CLEAR     39  34  82 SW6       29.84S WCI  35
$$

KYZ054-064>069-076>088-106>120-210900-
SOUTHEAST KENTUCKY

CITY           SKY/WX    TMP DP  RH WIND       PRES   REMARKS
JACKSON        CLOUDY    48  35  60 VRB6      29.87S
LONDON         CLOUDY    51  39  63 W5        29.89S
SOMERSET       CLOUDY    46  41  81 CALM      29.91S
MIDDLESBORO    CLOUDY    49  47  95 CALM      29.90S
MONTICELLO     PTSUNNY   49  44  83 CALM      29.93S
$$



USA.gov is the U.S. government's official web portal to all federal, state and local government web resources and services.